Regional Weather Roundup
Issued by NWS Charleston, SC

Current Version | Previous Version | Graphics & Text | Print | Product List | Glossary On
Versions: 1 2 3 4 5 6 7 8 9 10 11 12 13 14 15 16 17 18 19 20 21 22 23 24 25 26 27 28 29 30 31 32 33 34 35 36 37 38 39 40 41 42 43 44 45 46 47 48 49 50
000 ASUS42 KCHS 220010 RWRCHS REGIONAL WEATHER ROUNDUP NATIONAL WEATHER SERVICE CHARLESTON SC 800 PM EDT THU AUG 21 2014 NOTE: "FAIR" INDICATES FEW OR NO CLOUDS BELOW 12,000 FEET WITH NO SIGNIFICANT WEATHER AND/OR OBSTRUCTIONS TO VISIBILITY. NOT ALL STATIONS ARE QUALITY CONTROLLED BY THE NATIONAL WEATHER SERVICE. USE DATA WITH CAUTION...ESPECIALLY DEWPOINT OBSERVATIONS. SCZ027-030-031-034>040-042>050-220100- ...SOUTH CAROLINA... CITY SKY/WX TMP DP RH WIND PRES REMARKS N CHARLESTON PTCLDY 90 70 51 N5 30.03S HX 95 6HR MIN TEMP: 90; 6HR MAX TEMP: 97; WATERFRONT PRK NOT AVBL FORT JOHNSON NOT AVBL MOUNT PLEASANT FAIR 86 81 84 CALM 30.03R HX 102 JOHNS ISLAND CLEAR 88 81 79 CALM 30.03S HX 105 PINOPOLIS N/A 97 79 56 CALM 29.96S HX 115 MONCKS CORNER N/A 84 81 89 CALM 30.04R HX 98 SUMMERVILLE NOT AVBL BEAUFORT MCAS PTCLDY 90 73 57 CALM 30.03S HX 98 6HR MIN TEMP: 90; 6HR MAX TEMP: 97; BEAUFORT ARPT FAIR 86 79 79 S3 30.03R HX 99 HILTON HEAD IS CLEAR 86 77 74 S5 30.05R HX 97 GEORGETOWN NOT AVBL WALTERBORO CLEAR 88 72 58 CALM 30.05R HX 94 ORANGEBURG CLEAR 88 70 55 NE3 30.05R HX 93 6HR MIN TEMP: 88; 6HR MAX TEMP: 97; BARNWELL FAIR 91 66 43 NE3 30.05R HX 94 AIKEN FAIR 88 70 55 SE5 30.09S HX 92 MANNING FAIR 86 79 79 CALM 30.04R HX 99 KINGSTREE NOT AVBL COLUMBIA MOCLDY 91 67 44 E5 30.04R HX 94 6HR MIN TEMP: 91; 6HR MAX TEMP: 98; SUMTER PTCLDY 89 67 48 NW3 30.04R HX 93 6HR MIN TEMP: 89; 6HR MAX TEMP: 95; FLORENCE CLEAR 85 71 63 CALM 30.04R HX 90 6HR MIN TEMP: 85; 6HR MAX TEMP: 97; MYRTLE BEACH PTCLDY 84 72 65 S9 30.03S N MYRTLE BEACH PTCLDY 82 74 76 SW7 30.03R 6HR MIN TEMP: 78; 6HR MAX TEMP: 86; 6HR PCP: 0.26; $$ GAZ063-065-086>088-099>101-113>116-118-119-134-136>141-150-220100- ...GEORGIA... CITY SKY/WX TMP DP RH WIND PRES REMARKS SAVANNAH ARPT PTCLDY 89 73 59 W5 30.04R HX 97 6HR MIN TEMP: 89; 6HR MAX TEMP: 97; HUNTER AAF CLEAR 89 74 62 W5 30.02R HX 98 6HR MIN TEMP: 89; 6HR MAX TEMP: 97; FORT STEWART CLEAR 88 73 61 CALM 30.03R HX 95 6HR MIN TEMP: 88; 6HR MAX TEMP: 98; STATESBORO NOT AVBL SYLVANIA CLEAR 85 74 70 CALM 30.05R HX 93 CLAXTON FAIR 86 77 74 CALM 30.05R HX 97 THOMSON MOCLDY 83 75 76 CALM 30.11S HX 90 AUGUSTA-BUSH PTCLDY 88 69 53 W3 30.03R HX 92 6HR MIN TEMP: 88; 6HR MAX TEMP: 98; AUGUSTA-DANIEL CLEAR 93 65 39 CALM 30.06R HX 95 SWAINSBORO FAIR 86 73 66 CALM 30.06S HX 93 VIDALIA N/A 88 73 62 NE3 30.06R HX 96 ALMA CLEAR 87 73 62 CALM 30.05R HX 94 6HR MIN TEMP: 87; 6HR MAX TEMP: 97; WAYCROSS CLEAR 94 75 55 CALM 30.05R HX 105 JESUP N/A 88 75 66 CALM 30.05R HX 97 BRUNSWICK CLEAR 86 73 66 CALM 30.05R HX 93 SAINT SIMONS CLEAR 86 76 71 SE6 30.04R HX 96 6HR MIN TEMP: 86; 6HR MAX TEMP: 98; $$ SCZ027-028-034-036>038-045-046-048>050-GAZ119-141-220100- ...LAKE AND SUPPLEMENTAL COASTAL OBSERVATIONS... STATION/POSITION TIME TEMP WIND PRES WAVE SWELL AIR SEA DIR/SP/G HT/PER HT/PER/DIR (UTC) (F) (DEG/KT/KT) (MB) (FT/S) (FT/S/D) UPR LAKE MARION NOT AVBL WINYAH BAY 2300 85 140/ 6 1016.0S LAKE MURRAY 2300 92 CALM 1016.6R ACE BASIN NERRS 2300 93 CALM 1017.0S FORT PULASKI 0000 87 160/ 4/ 6 1017.4R SAPELO ISLAND 2300 93 120/ 3 1018.0S $$ ANZ835-935-AMZ111-154-330-350-352-354-374-450-454-472-220100- ...C-MAN AND BUOY OBSERVATIONS... STATION/POSITION TIME TEMP WIND PRES WAVE SWELL AIR SEA DIR/SP/G HT/PER HT/PER/DIR (UTC) (F) (DEG/KT/KT) (MB) (FT/S) (FT/S/D) FOLLY BEACH CMAN 2300 86 200/ 7/ 8 1017.2R BUOY 41004 0000 83 85 190/ 6/ 8 1016.3F 2/ 9 2/ 9 BUOY 41008 0000 85 86 170/ 10/ 10 1017.0R 1/10 5E ST. MARYS GA 0000 84 N/A 1/ 9 FRYING PAN BUOY NOT AVBL BUOY 41025 0000 81 200/ 6/ 8 1016.3R 2/ 9 2/ 50/ 9 CAPE LOOKOUT NC 2300 83 210/ 4/ 5 1016.2F BUOY 41002 2250 82 82 250/ 8/ 10 1018.6S 2/ 7 2/ 20/ 7 BUOY 41010 2300 85 86 200/ 4/ 6 1018.9R BUOY 41012 NOT AVBL ST AUGUSTINE FL 0000 82 240/ 3/ 4 1018.9R CAPERS NEARSHORE 2300 86 200/ 8/ 10 N/A FRIPP NEARSHORE NOT AVBL $$

USA.gov is the U.S. government's official web portal to all federal, state and local government web resources and services.